Tracking 22779 objects as of 14-Apr-2021
HD Live streaming from Space Station
objects crossing your sky now

LUCKY-7

Track LUCKY-7 now!
10-day predictions
LUCKY-7 is classified as:


NORAD ID: 44406
Int'l Code: 2019-038W
Perigee: 517.9 km
Apogee: 551.7 km
Inclination: 97.6 °
Period: 95.2 minutes
Semi major axis: 6905 km
RCS: Unknown
Launch date: July 5, 2019
Source: United States (US)
Launch site: VOSTOCHNY COSMODROME (VOSTO)

Uplink (MHz):
Downlink (MHz): 437.525
Beacon (MHz):
Mode: 4k8/9k6 GFSK
Call sign:
Status: Active

aabbcc
Your satellite tracking list
Your tracking list is empty




NASA's NSSDC Master Catalog

Two Line Element Set (TLE):
1 44406U 19038W   21103.17012195  .00000911  00000-0  55331-4 0  9994
2 44406  97.5835  67.6443 0024472 169.7585 190.4149 15.12807371 97871
Source of the keplerian elements: AFSPC